SCOUT X-4 DEB

Satellite information

Favourite Embed

Satellite Type and Status

DEBRISIN ORBIT

Key statistics

Satellite SCOUT X-4 DEB at a glance.

Uptime

22481

Days in orbit

Revolutions

≈ 14.0

Per day

Orbit

LEO

Low Earth Orbit

Inclination

78.6

Latest

Satellite identification and parameters

Extended collection of information and parameters for SCOUT X-4 DEB.

Object identification

Identified? True

Debris? True

Object name: SCOUT X-4 DEB

International designator: 1963-053H

Object number (NORAD): 732

Object ID (CCSDS): 732

Country: UNITED STATES OF AMERICA (US)

Current information (Y/N): Y

RCS size: SMALL

Orbital parameters

Period: 102.917 minutes

Inclination: 78.5574 deg

SMA: 7274.76 km

Apoapsis: 1212.02 km

Periapsis: 581.23 km

RAAN: 299.9511 deg

Eccentricy: 0.0433547

Argument of periapsis: 220.0804 deg

Mean anomaly: 136.7617 deg

Mean motion: 13.99183788 rev/day

Mean motion (dot): 0.00008258 rev/day2

B* drag term: 0.0025167 1/REarth

Two-line elements (TLE)

Creation date: July 6, 2025, 6:05 p.m.

Reference frame: TEME

Reference center: EARTH

Epoch: July 6, 2025, 8:15 a.m. UTC

TLE line 0: 0 SCOUT X-4 DEB

TLE line 1: 1 00732U 63053H 25187.34430778 .00008258 00000-0 25167-2 0 9994

TLE line 2: 2 00732 78.5574 299.9511 0433547 220.0804 136.7617 13.99183788926643

Live tracking on map

Real-time ground track for satellite SCOUT X-4 DEB.

In-orbit conjunctions

A list of the most updated potential collisions computed for object SCOUT X-4 DEB.

Target Orbit TCA Probability of collision Miss distance Type
FENGYUN 1C DEB SSO 2024-09-25 13:25:04 0.0008209719 774.0 (m) DEBRIS

Associated space launch

Explorer 19 was the second in a series of 3.66-m inflatable spheres placed into orbit to determine atmospheric densities.

SCOUT X-4 DEB was lifted into orbit during the mission ‘Scout X-4 | Explorer 19’, on board a Scout X-4 space rocket.

The launch took place on Dec. 19, 1963, 6:49 p.m. from Space Launch Complex 5.

For more information about the launch, click the button.

Launch to space Scout X-4 | Explorer 19
Scout X-4 | Explorer 19

Agency: N/A

Status: Launch Successful

Launch date: Dec. 19, 1963, 6:49 p.m. UTC

Rocket: Scout X-4

Launch pad: Space Launch Complex 5

Location: Vandenberg SFB, CA, USA

...

Latest news about this satellite

There are no fresh news available about this satellite. Check back as we update our databases every day.


Newsletter sign-up

Weekly statistics, charts and insights to help you stay on top of the space industry.